Time,TemperatureF,DewpointF,PressureIn,WindDirection,WindDirectionDegrees,WindSpeedMPH,WindSpeedGustMPH,Humidity,HourlyPrecipIn,Conditions,Clouds,dailyrainin,SoftwareType,DateUTC
2013-10-14 00:01:00,60.3,59.7,0.00,North,357,0.0,0.0,98,0.00,,---,0.00,VWS V13.01,2013-10-14 04:01:00,
2013-10-14 00:03:00,60.3,59.7,0.00,North,357,0.0,0.0,98,0.00,,---,0.00,VWS V13.01,2013-10-14 04:03:00,
2013-10-14 00:04:00,60.3,59.7,0.00,North,357,0.0,0.0,98,0.00,,---,0.00,VWS V13.01,2013-10-14 04:04:00,
2013-10-14 00:09:00,60.3,59.7,0.00,North,357,0.0,0.0,98,0.00,,---,0.00,VWS V13.01,2013-10-14 04:09:00,
2013-10-14 00:10:00,60.3,59.7,0.00,North,357,0.0,0.0,98,0.00,,---,0.00,VWS V13.01,2013-10-14 04:10:00,
2013-10-14 00:15:00,60.3,59.7,0.00,North,357,0.0,0.0,98,0.00,,---,0.00,VWS V13.01,2013-10-14 04:15:00,
2013-10-14 00:20:00,60.3,59.7,0.00,North,357,0.0,0.0,98,0.00,,---,0.00,VWS V13.01,2013-10-14 04:20:00,
2013-10-14 00:25:00,60.1,59.5,0.00,North,357,0.0,0.0,98,0.00,,---,0.00,VWS V13.01,2013-10-14 04:25:00,
2013-10-14 00:31:00,60.1,59.5,0.00,North,357,0.0,0.0,98,0.00,,---,0.00,VWS V13.01,2013-10-14 04:31:00,
2013-10-14 00:36:00,60.1,59.5,0.00,North,357,0.0,0.0,98,0.00,,---,0.00,VWS V13.01,2013-10-14 04:36:00,
2013-10-14 00:41:00,60.1,59.5,0.00,North,357,0.0,0.0,98,0.00,,---,0.00,VWS V13.01,2013-10-14 04:41:00,
2013-10-14 00:46:00,60.1,59.5,0.00,North,357,0.0,0.0,98,0.00,,---,0.00,VWS V13.01,2013-10-14 04:46:00,
2013-10-14 00:51:00,60.1,59.5,0.00,North,357,0.0,0.0,98,0.00,,---,0.00,VWS V13.01,2013-10-14 04:51:00,
2013-10-14 00:56:00,60.1,59.5,0.00,North,357,0.0,0.0,98,0.00,,---,0.00,VWS V13.01,2013-10-14 04:56:00,
2013-10-14 01:01:00,60.1,59.5,0.00,North,357,0.0,0.0,98,0.00,,---,0.00,VWS V13.01,2013-10-14 05:01:00,
2013-10-14 01:06:00,60.1,59.5,0.00,North,357,0.0,0.0,98,0.00,,---,0.00,VWS V13.01,2013-10-14 05:06:00,
2013-10-14 01:11:00,60.1,59.5,0.00,North,357,0.0,0.0,98,0.00,,---,0.00,VWS V13.01,2013-10-14 05:11:00,
2013-10-14 01:16:00,59.9,59.3,0.00,North,357,0.0,0.0,98,0.00,,---,0.00,VWS V13.01,2013-10-14 05:16:00,
2013-10-14 01:21:00,59.9,59.3,0.00,North,357,0.0,0.0,98,0.00,,---,0.00,VWS V13.01,2013-10-14 05:21:00,
2013-10-14 01:27:00,59.9,59.3,0.00,North,357,0.0,0.0,98,0.00,,---,0.00,VWS V13.01,2013-10-14 05:27:00,
2013-10-14 01:32:00,59.9,59.3,0.00,North,357,0.0,0.0,98,0.00,,---,0.00,VWS V13.01,2013-10-14 05:32:00,
2013-10-14 01:37:00,59.9,59.3,0.00,North,357,0.0,0.0,98,0.00,,---,0.00,VWS V13.01,2013-10-14 05:37:00,
2013-10-14 01:42:00,59.9,59.3,0.00,North,357,0.0,0.0,98,0.00,,---,0.00,VWS V13.01,2013-10-14 05:42:00,
2013-10-14 01:47:00,59.7,59.2,0.00,North,357,0.0,0.0,98,0.00,,---,0.00,VWS V13.01,2013-10-14 05:47:00,
2013-10-14 01:52:00,59.4,58.8,0.00,North,357,0.0,0.0,98,0.00,,---,0.00,VWS V13.01,2013-10-14 05:52:00,
2013-10-14 01:57:00,58.8,58.3,0.00,North,357,0.0,0.0,98,0.00,,---,0.00,VWS V13.01,2013-10-14 05:57:00,
2013-10-14 02:02:00,58.5,57.9,0.00,North,357,0.0,0.0,98,0.00,,---,0.00,VWS V13.01,2013-10-14 06:02:00,
2013-10-14 02:07:00,58.1,57.5,0.00,North,357,0.0,0.0,98,0.00,,---,0.00,VWS V13.01,2013-10-14 06:07:00,
2013-10-14 02:12:00,57.7,57.2,0.00,North,357,0.0,0.0,98,0.00,,---,0.00,VWS V13.01,2013-10-14 06:12:00,
2013-10-14 02:17:00,57.6,57.0,0.00,North,357,0.0,0.0,98,0.00,,---,0.00,VWS V13.01,2013-10-14 06:17:00,
2013-10-14 02:22:00,57.2,56.6,0.00,North,357,0.0,0.0,98,0.00,,---,0.00,VWS V13.01,2013-10-14 06:22:00,
2013-10-14 02:28:00,57.2,56.6,0.00,North,357,0.0,0.0,98,0.00,,---,0.00,VWS V13.01,2013-10-14 06:28:00,
2013-10-14 02:33:00,56.8,56.3,0.00,North,357,0.0,0.0,98,0.00,,---,0.00,VWS V13.01,2013-10-14 06:33:00,
2013-10-14 02:38:00,56.8,56.3,0.00,North,357,0.0,0.0,98,0.00,,---,0.00,VWS V13.01,2013-10-14 06:38:00,
2013-10-14 02:43:00,56.7,56.1,0.00,North,357,0.0,0.0,98,0.00,,---,0.00,VWS V13.01,2013-10-14 06:43:00,
2013-10-14 02:48:00,56.7,56.1,0.00,North,357,0.0,0.0,98,0.00,,---,0.00,VWS V13.01,2013-10-14 06:48:00,
2013-10-14 02:53:00,56.7,56.1,0.00,North,357,0.0,0.0,98,0.00,,---,0.00,VWS V13.01,2013-10-14 06:53:00,
2013-10-14 02:58:00,56.7,56.1,0.00,North,357,0.0,0.0,98,0.00,,---,0.00,VWS V13.01,2013-10-14 06:58:00,
2013-10-14 03:03:00,56.5,55.9,0.00,North,357,0.0,0.0,98,0.00,,---,0.00,VWS V13.01,2013-10-14 07:03:00,
2013-10-14 03:08:00,56.5,55.9,0.00,North,357,0.0,0.0,98,0.00,,---,0.00,VWS V13.01,2013-10-14 07:08:00,
2013-10-14 03:13:00,56.5,55.9,0.00,North,357,0.0,0.0,98,0.00,,---,0.00,VWS V13.01,2013-10-14 07:13:00,
2013-10-14 03:18:00,56.5,55.9,0.00,North,357,0.0,0.0,98,0.00,,---,0.00,VWS V13.01,2013-10-14 07:18:00,
2013-10-14 03:23:00,56.5,55.9,0.00,North,357,0.0,0.0,98,0.00,,---,0.00,VWS V13.01,2013-10-14 07:23:00,
2013-10-14 03:28:00,56.5,55.9,0.00,North,357,0.0,0.0,98,0.00,,---,0.00,VWS V13.01,2013-10-14 07:28:00,
2013-10-14 03:34:00,56.3,55.8,0.00,North,357,0.0,0.0,98,0.00,,---,0.00,VWS V13.01,2013-10-14 07:34:00,
2013-10-14 03:39:00,56.1,55.6,0.00,North,357,0.0,0.0,98,0.00,,---,0.00,VWS V13.01,2013-10-14 07:39:00,
2013-10-14 03:44:00,56.1,55.6,0.00,North,357,0.0,0.0,98,0.00,,---,0.00,VWS V13.01,2013-10-14 07:44:00,
2013-10-14 03:49:00,55.9,55.4,0.00,North,357,0.0,0.0,98,0.00,,---,0.00,VWS V13.01,2013-10-14 07:49:00,
2013-10-14 03:54:00,55.6,55.0,0.00,North,357,0.0,0.0,98,0.00,,---,0.00,VWS V13.01,2013-10-14 07:54:00,
2013-10-14 03:59:00,55.4,54.8,0.00,North,357,0.0,0.0,98,0.00,,---,0.00,VWS V13.01,2013-10-14 07:59:00,
2013-10-14 04:04:00,55.2,54.7,0.00,North,357,0.0,0.0,98,0.00,,---,0.00,VWS V13.01,2013-10-14 08:04:00,
2013-10-14 04:09:00,55.0,54.5,0.00,North,357,0.0,0.0,98,0.00,,---,0.00,VWS V13.01,2013-10-14 08:09:00,
2013-10-14 04:14:00,54.9,54.3,0.00,North,357,0.0,0.0,98,0.00,,---,0.00,VWS V13.01,2013-10-14 08:14:00,
2013-10-14 04:19:00,54.9,54.3,0.00,North,357,0.0,0.0,98,0.00,,---,0.00,VWS V13.01,2013-10-14 08:19:00,
2013-10-14 04:24:00,54.7,54.1,0.00,North,357,0.0,0.0,98,0.00,,---,0.00,VWS V13.01,2013-10-14 08:24:00,
2013-10-14 04:29:00,54.9,54.3,0.00,North,357,0.0,0.0,98,0.00,,---,0.00,VWS V13.01,2013-10-14 08:29:00,
2013-10-14 04:34:00,54.9,54.3,0.00,North,357,0.0,0.0,98,0.00,,---,0.00,VWS V13.01,2013-10-14 08:34:00,
2013-10-14 04:39:00,54.9,54.3,0.00,North,357,0.0,0.0,98,0.00,,---,0.00,VWS V13.01,2013-10-14 08:39:00,
2013-10-14 04:44:00,54.9,54.3,0.00,North,357,0.0,0.0,98,0.00,,---,0.00,VWS V13.01,2013-10-14 08:44:00,
2013-10-14 04:49:00,54.7,54.1,0.00,North,357,0.0,0.0,98,0.00,,---,0.00,VWS V13.01,2013-10-14 08:49:00,
2013-10-14 04:54:00,54.7,54.1,0.00,North,357,0.0,0.0,98,0.00,,---,0.00,VWS V13.01,2013-10-14 08:54:00,
2013-10-14 04:59:00,54.7,54.1,0.00,North,357,0.0,0.0,98,0.00,,---,0.00,VWS V13.01,2013-10-14 08:59:00,
2013-10-14 05:04:00,54.7,54.1,0.00,North,357,0.0,0.0,98,0.00,,---,0.00,VWS V13.01,2013-10-14 09:04:00,
2013-10-14 05:09:00,54.5,54.0,0.00,North,357,0.0,0.0,98,0.00,,---,0.00,VWS V13.01,2013-10-14 09:09:00,
2013-10-14 05:14:00,54.5,54.0,0.00,North,357,0.0,0.0,98,0.00,,---,0.00,VWS V13.01,2013-10-14 09:14:00,
2013-10-14 05:19:00,54.5,54.0,0.00,North,357,0.0,0.0,98,0.00,,---,0.00,VWS V13.01,2013-10-14 09:19:00,
2013-10-14 05:25:00,54.3,53.8,0.00,North,357,0.0,0.0,98,0.00,,---,0.00,VWS V13.01,2013-10-14 09:25:00,
2013-10-14 05:30:00,54.3,53.8,0.00,North,357,0.0,0.0,98,0.00,,---,0.00,VWS V13.01,2013-10-14 09:30:00,
2013-10-14 05:35:00,54.3,53.8,0.00,North,357,0.0,0.0,98,0.00,,---,0.00,VWS V13.01,2013-10-14 09:35:00,
2013-10-14 05:40:00,54.3,53.8,0.00,North,357,0.0,0.0,98,0.00,,---,0.00,VWS V13.01,2013-10-14 09:40:00,
2013-10-14 05:45:00,54.3,53.8,0.00,North,357,0.0,0.0,98,0.00,,---,0.00,VWS V13.01,2013-10-14 09:45:00,
2013-10-14 05:50:00,54.3,53.8,0.00,North,357,0.0,0.0,98,0.00,,---,0.00,VWS V13.01,2013-10-14 09:50:00,
2013-10-14 05:55:00,54.1,53.6,0.00,North,357,0.0,0.0,98,0.00,,---,0.00,VWS V13.01,2013-10-14 09:55:00,
2013-10-14 06:00:00,54.1,53.6,0.00,North,357,0.0,0.0,98,0.00,,---,0.00,VWS V13.01,2013-10-14 10:00:00,
2013-10-14 06:05:00,54.1,53.6,0.00,North,357,0.0,0.0,98,0.00,,---,0.00,VWS V13.01,2013-10-14 10:05:00,
2013-10-14 06:10:00,54.1,53.6,0.00,North,357,0.0,0.0,98,0.00,,---,0.00,VWS V13.01,2013-10-14 10:10:00,
2013-10-14 06:15:00,54.1,53.6,0.00,North,357,0.0,0.0,98,0.00,,---,0.00,VWS V13.01,2013-10-14 10:15:00,
2013-10-14 06:20:00,54.0,53.4,0.00,North,357,0.0,0.0,98,0.00,,---,0.00,VWS V13.01,2013-10-14 10:20:00,
2013-10-14 06:25:00,54.0,53.4,0.00,North,357,0.0,0.0,98,0.00,,---,0.00,VWS V13.01,2013-10-14 10:25:00,
2013-10-14 06:30:00,54.0,53.4,0.00,North,357,0.0,0.0,98,0.00,,---,0.00,VWS V13.01,2013-10-14 10:30:00,
2013-10-14 06:35:00,54.0,53.4,0.00,North,357,0.0,0.0,98,0.00,,---,0.00,VWS V13.01,2013-10-14 10:35:00,
2013-10-14 06:40:00,54.0,53.4,0.00,North,357,0.0,0.0,98,0.00,,---,0.00,VWS V13.01,2013-10-14 10:40:00,
2013-10-14 06:45:00,54.0,53.4,0.00,North,357,0.0,0.0,98,0.00,,---,0.00,VWS V13.01,2013-10-14 10:45:00,
2013-10-14 06:50:00,54.0,53.4,0.00,North,357,0.0,0.0,98,0.00,,---,0.00,VWS V13.01,2013-10-14 10:50:00,
2013-10-14 06:55:00,53.8,53.2,0.00,North,357,0.0,0.0,98,0.00,,---,0.00,VWS V13.01,2013-10-14 10:55:00,
2013-10-14 07:00:00,53.8,53.2,0.00,North,357,0.0,0.0,98,0.00,,---,0.00,VWS V13.01,2013-10-14 11:00:00,
2013-10-14 07:05:00,53.8,53.2,0.00,North,357,0.0,0.0,98,0.00,,---,0.00,VWS V13.01,2013-10-14 11:05:00,
2013-10-14 07:10:00,53.6,53.0,0.00,North,357,0.0,0.0,98,0.00,,---,0.00,VWS V13.01,2013-10-14 11:10:00,
2013-10-14 07:15:00,53.6,53.0,0.00,North,357,0.0,0.0,98,0.00,,---,0.00,VWS V13.01,2013-10-14 11:15:00,
2013-10-14 07:20:00,53.6,53.0,0.00,North,357,0.0,0.0,98,0.00,,---,0.00,VWS V13.01,2013-10-14 11:20:00,
2013-10-14 07:25:00,53.6,53.0,0.00,North,357,0.0,0.0,98,0.00,,---,0.00,VWS V13.01,2013-10-14 11:25:00,
2013-10-14 07:31:00,53.6,53.0,0.00,North,357,0.0,0.0,98,0.00,,---,0.00,VWS V13.01,2013-10-14 11:31:00,
2013-10-14 07:36:00,53.4,52.9,0.00,North,357,0.0,0.0,98,0.00,,---,0.00,VWS V13.01,2013-10-14 11:36:00,
2013-10-14 07:41:00,53.4,52.9,0.00,North,357,0.0,0.0,98,0.00,,---,0.00,VWS V13.01,2013-10-14 11:41:00,
2013-10-14 07:46:00,53.4,52.9,0.00,North,357,0.0,0.0,98,0.00,,---,0.00,VWS V13.01,2013-10-14 11:46:00,
2013-10-14 07:51:00,53.4,52.9,0.00,North,357,0.0,0.0,98,0.00,,---,0.00,VWS V13.01,2013-10-14 11:51:00,
2013-10-14 07:56:00,53.4,52.9,0.00,North,357,0.0,0.0,98,0.00,,---,0.00,VWS V13.01,2013-10-14 11:56:00,
2013-10-14 08:01:00,53.4,52.9,0.00,North,357,0.0,0.0,98,0.00,,---,0.00,VWS V13.01,2013-10-14 12:01:00,
2013-10-14 08:06:00,53.6,53.0,0.00,North,357,0.0,0.0,98,0.00,,---,0.00,VWS V13.01,2013-10-14 12:06:00,
2013-10-14 08:11:00,53.6,53.0,0.00,North,357,0.0,0.0,98,0.00,,---,0.00,VWS V13.01,2013-10-14 12:11:00,
2013-10-14 08:16:00,53.6,53.0,0.00,North,357,0.0,0.0,98,0.00,,---,0.00,VWS V13.01,2013-10-14 12:16:00,
2013-10-14 08:21:00,53.6,53.0,0.00,North,357,0.0,0.0,98,0.00,,---,0.00,VWS V13.01,2013-10-14 12:21:00,
2013-10-14 08:26:00,53.6,53.0,0.00,North,357,0.0,0.0,98,0.00,,---,0.00,VWS V13.01,2013-10-14 12:26:00,
2013-10-14 08:31:00,53.8,53.2,0.00,North,357,0.0,0.0,98,0.00,,---,0.00,VWS V13.01,2013-10-14 12:31:00,
2013-10-14 08:36:00,53.8,53.2,0.00,North,357,0.0,0.0,98,0.00,,---,0.00,VWS V13.01,2013-10-14 12:36:00,
2013-10-14 08:41:00,53.8,53.2,0.00,North,357,0.0,0.0,98,0.00,,---,0.00,VWS V13.01,2013-10-14 12:41:00,
2013-10-14 08:46:00,54.0,53.4,0.00,North,357,0.0,0.0,98,0.00,,---,0.00,VWS V13.01,2013-10-14 12:46:00,
2013-10-14 08:51:00,54.0,53.4,0.00,North,357,0.0,0.0,98,0.00,,---,0.00,VWS V13.01,2013-10-14 12:51:00,
2013-10-14 08:56:00,54.1,53.6,0.00,North,357,0.0,0.0,98,0.00,,---,0.00,VWS V13.01,2013-10-14 12:56:00,
2013-10-14 09:01:00,54.3,53.8,0.00,North,357,0.0,0.0,98,0.00,,---,0.00,VWS V13.01,2013-10-14 13:01:00,
2013-10-14 09:06:00,54.3,53.8,0.00,North,357,0.0,0.0,98,0.00,,---,0.00,VWS V13.01,2013-10-14 13:06:00,
2013-10-14 09:11:00,54.5,54.0,0.00,North,357,0.0,0.0,98,0.00,,---,0.00,VWS V13.01,2013-10-14 13:11:00,
2013-10-14 09:16:00,54.5,54.0,0.00,North,357,0.0,0.0,98,0.00,,---,0.00,VWS V13.01,2013-10-14 13:16:00,
2013-10-14 09:21:00,54.5,54.0,0.00,North,357,0.0,0.0,98,0.00,,---,0.00,VWS V13.01,2013-10-14 13:21:00,
2013-10-14 09:26:00,54.5,54.0,0.00,North,357,0.0,0.0,98,0.00,,---,0.00,VWS V13.01,2013-10-14 13:26:00,
2013-10-14 09:31:00,54.5,54.0,0.00,North,357,0.0,0.0,98,0.00,,---,0.00,VWS V13.01,2013-10-14 13:31:00,
2013-10-14 09:37:00,54.7,54.1,0.00,North,357,0.0,0.0,98,0.00,,---,0.00,VWS V13.01,2013-10-14 13:37:00,
2013-10-14 09:42:00,54.7,54.1,0.00,North,357,0.0,0.0,98,0.00,,---,0.00,VWS V13.01,2013-10-14 13:42:00,
2013-10-14 09:47:00,54.7,54.1,0.00,North,357,0.0,0.0,98,0.00,,---,0.00,VWS V13.01,2013-10-14 13:47:00,
2013-10-14 09:52:00,54.7,54.1,0.00,North,357,0.0,0.0,98,0.00,,---,0.00,VWS V13.01,2013-10-14 13:52:00,
2013-10-14 09:57:00,54.7,53.8,0.00,North,357,0.0,0.0,97,0.00,,---,0.00,VWS V13.01,2013-10-14 13:57:00,
2013-10-14 10:02:00,54.7,53.8,0.00,North,357,0.0,0.0,97,0.00,,---,0.00,VWS V13.01,2013-10-14 14:02:00,
2013-10-14 10:07:00,54.7,53.8,0.00,North,357,0.0,0.0,97,0.00,,---,0.00,VWS V13.01,2013-10-14 14:07:00,
2013-10-14 10:12:00,54.9,54.0,0.00,North,357,0.0,0.0,97,0.00,,---,0.00,VWS V13.01,2013-10-14 14:12:00,
2013-10-14 10:17:00,55.0,54.2,0.00,North,357,0.0,0.0,97,0.00,,---,0.00,VWS V13.01,2013-10-14 14:17:00,
2013-10-14 10:22:00,55.2,54.4,0.00,North,357,0.0,0.0,97,0.00,,---,0.00,VWS V13.01,2013-10-14 14:22:00,
2013-10-14 10:27:00,55.2,54.4,0.00,North,357,0.0,0.0,97,0.00,,---,0.00,VWS V13.01,2013-10-14 14:27:00,
2013-10-14 10:32:00,55.4,54.3,0.00,North,357,0.0,0.0,96,0.00,,---,0.00,VWS V13.01,2013-10-14 14:32:00,
2013-10-14 10:37:00,55.6,54.5,0.00,North,357,0.0,0.0,96,0.00,,---,0.00,VWS V13.01,2013-10-14 14:37:00,
2013-10-14 10:42:00,55.8,54.6,0.00,North,357,0.0,0.0,96,0.00,,---,0.00,VWS V13.01,2013-10-14 14:42:00,
2013-10-14 10:47:00,55.9,54.5,0.00,North,357,0.0,0.0,95,0.00,,---,0.00,VWS V13.01,2013-10-14 14:47:00,
2013-10-14 10:52:00,56.3,54.9,0.00,North,357,0.0,0.0,95,0.00,,---,0.00,VWS V13.01,2013-10-14 14:52:00,
2013-10-14 10:57:00,56.7,55.2,0.00,North,357,0.0,0.0,95,0.00,,---,0.00,VWS V13.01,2013-10-14 14:57:00,
2013-10-14 11:02:00,56.7,55.0,0.00,North,357,0.0,0.0,94,0.00,,---,0.00,VWS V13.01,2013-10-14 15:02:00,
2013-10-14 11:07:00,56.8,54.8,0.00,North,357,0.0,0.0,93,0.00,,---,0.00,VWS V13.01,2013-10-14 15:07:00,
2013-10-14 11:12:00,57.2,55.2,0.00,North,357,0.0,0.0,93,0.00,,---,0.00,VWS V13.01,2013-10-14 15:12:00,
2013-10-14 11:17:00,57.4,55.4,0.00,North,357,0.0,0.0,93,0.00,,---,0.00,VWS V13.01,2013-10-14 15:17:00,
2013-10-14 11:22:00,57.7,55.4,0.00,North,357,0.0,0.0,92,0.00,,---,0.00,VWS V13.01,2013-10-14 15:22:00,
2013-10-14 11:27:00,57.9,55.3,0.00,North,357,0.0,0.0,91,0.00,,---,0.00,VWS V13.01,2013-10-14 15:27:00,
2013-10-14 11:32:00,58.1,55.5,0.00,North,357,0.0,0.0,91,0.00,,---,0.00,VWS V13.01,2013-10-14 15:32:00,
2013-10-14 11:37:00,58.5,55.5,0.00,North,357,0.0,0.0,90,0.00,,---,0.00,VWS V13.01,2013-10-14 15:37:00,
2013-10-14 11:42:00,58.6,55.1,0.00,North,357,0.0,0.0,88,0.00,,---,0.00,VWS V13.01,2013-10-14 15:42:00,
2013-10-14 11:47:00,58.5,54.3,0.00,North,357,0.0,0.0,86,0.00,,---,0.00,VWS V13.01,2013-10-14 15:47:00,
2013-10-14 11:53:00,58.6,53.8,0.00,North,357,0.0,0.0,84,0.00,,---,0.00,VWS V13.01,2013-10-14 15:53:00,
2013-10-14 11:58:00,59.0,53.8,0.00,North,357,0.0,0.0,83,0.00,,---,0.00,VWS V13.01,2013-10-14 15:58:00,
2013-10-14 12:03:00,59.0,53.2,0.00,North,357,0.0,0.0,81,0.00,,---,0.00,VWS V13.01,2013-10-14 16:03:00,
2013-10-14 12:08:00,59.4,52.9,0.00,North,357,0.0,0.0,79,0.00,,---,0.00,VWS V13.01,2013-10-14 16:08:00,
2013-10-14 12:13:00,59.7,52.5,0.00,North,357,0.0,0.0,77,0.00,,---,0.00,VWS V13.01,2013-10-14 16:13:00,
2013-10-14 12:18:00,60.1,52.5,0.00,North,357,0.0,0.0,76,0.00,,---,0.00,VWS V13.01,2013-10-14 16:18:00,
2013-10-14 12:23:00,59.9,51.6,0.00,North,357,0.0,0.0,74,0.00,,---,0.00,VWS V13.01,2013-10-14 16:23:00,
2013-10-14 12:28:00,60.1,51.0,0.00,North,357,0.0,0.0,72,0.00,,---,0.00,VWS V13.01,2013-10-14 16:28:00,
2013-10-14 12:33:00,59.7,49.9,0.00,North,357,0.0,0.0,70,0.00,,---,0.00,VWS V13.01,2013-10-14 16:33:00,
2013-10-14 12:38:00,59.5,49.0,0.00,North,357,0.0,0.0,68,0.00,,---,0.00,VWS V13.01,2013-10-14 16:38:00,
2013-10-14 12:43:00,59.4,48.4,0.00,North,357,0.0,0.0,67,0.00,,---,0.00,VWS V13.01,2013-10-14 16:43:00,
2013-10-14 12:48:00,59.5,48.6,0.00,North,357,0.0,0.0,67,0.00,,---,0.00,VWS V13.01,2013-10-14 16:48:00,
2013-10-14 12:53:00,59.9,48.5,0.00,North,357,0.0,0.0,66,0.00,,---,0.00,VWS V13.01,2013-10-14 16:53:00,
2013-10-14 12:58:00,60.6,48.8,0.00,North,357,0.0,0.0,65,0.00,,---,0.00,VWS V13.01,2013-10-14 16:58:00,
2013-10-14 13:03:00,61.0,47.9,0.00,North,357,0.0,0.0,62,0.00,,---,0.00,VWS V13.01,2013-10-14 17:03:00,
2013-10-14 13:08:00,61.3,47.8,0.00,North,357,0.0,0.0,61,0.00,,---,0.00,VWS V13.01,2013-10-14 17:08:00,
2013-10-14 13:13:00,61.2,47.2,0.00,North,357,0.0,0.0,60,0.00,,---,0.00,VWS V13.01,2013-10-14 17:13:00,
2013-10-14 13:18:00,61.5,47.1,0.00,North,357,0.0,0.0,59,0.00,,---,0.00,VWS V13.01,2013-10-14 17:18:00,
2013-10-14 13:23:00,61.5,46.2,0.00,North,357,0.0,0.0,57,0.00,,---,0.00,VWS V13.01,2013-10-14 17:23:00,
2013-10-14 13:28:00,61.3,45.5,0.00,North,357,0.0,0.0,56,0.00,,---,0.00,VWS V13.01,2013-10-14 17:28:00,
2013-10-14 13:33:00,61.0,45.7,0.00,North,357,0.0,0.0,57,0.00,,---,0.00,VWS V13.01,2013-10-14 17:33:00,
2013-10-14 13:38:00,61.0,45.7,0.00,North,357,0.0,0.0,57,0.00,,---,0.00,VWS V13.01,2013-10-14 17:38:00,
2013-10-14 13:43:00,61.0,44.7,0.00,North,357,0.0,0.0,55,0.00,,---,0.00,VWS V13.01,2013-10-14 17:43:00,
2013-10-14 13:48:00,61.0,44.2,0.00,North,357,0.0,0.0,54,0.00,,---,0.00,VWS V13.01,2013-10-14 17:48:00,
2013-10-14 13:54:00,61.7,45.4,0.00,North,357,0.0,0.0,55,0.00,,---,0.00,VWS V13.01,2013-10-14 17:54:00,
2013-10-14 13:59:00,62.1,45.7,0.00,North,357,0.0,0.0,55,0.00,,---,0.00,VWS V13.01,2013-10-14 17:59:00,
2013-10-14 14:04:00,62.1,45.7,0.00,North,357,0.0,0.0,55,0.00,,---,0.00,VWS V13.01,2013-10-14 18:04:00,
2013-10-14 14:09:00,62.1,45.7,0.00,North,357,0.0,0.0,55,0.00,,---,0.00,VWS V13.01,2013-10-14 18:09:00,
2013-10-14 14:14:00,62.1,45.7,0.00,North,357,0.0,0.0,55,0.00,,---,0.00,VWS V13.01,2013-10-14 18:14:00,
2013-10-14 14:19:00,62.1,45.2,0.00,North,357,0.0,0.0,54,0.00,,---,0.00,VWS V13.01,2013-10-14 18:19:00,
2013-10-14 14:24:00,62.1,45.2,0.00,North,357,0.0,0.0,54,0.00,,---,0.00,VWS V13.01,2013-10-14 18:24:00,
2013-10-14 14:29:00,61.7,43.9,0.00,North,357,0.0,0.0,52,0.00,,---,0.00,VWS V13.01,2013-10-14 18:29:00,
2013-10-14 14:34:00,61.9,45.1,0.00,North,357,0.0,0.0,54,0.00,,---,0.00,VWS V13.01,2013-10-14 18:34:00,
2013-10-14 14:39:00,61.9,45.1,0.00,North,357,0.0,0.0,54,0.00,,---,0.00,VWS V13.01,2013-10-14 18:39:00,
2013-10-14 14:44:00,61.9,44.6,0.00,North,357,0.0,0.0,53,0.00,,---,0.00,VWS V13.01,2013-10-14 18:44:00,
2013-10-14 14:49:00,61.9,44.6,0.00,North,357,0.0,0.0,53,0.00,,---,0.00,VWS V13.01,2013-10-14 18:49:00,
2013-10-14 14:54:00,61.9,45.1,0.00,North,357,0.0,0.0,54,0.00,,---,0.00,VWS V13.01,2013-10-14 18:54:00,
2013-10-14 14:59:00,61.9,45.1,0.00,North,357,0.0,0.0,54,0.00,,---,0.00,VWS V13.01,2013-10-14 18:59:00,
2013-10-14 15:04:00,61.9,45.1,0.00,North,357,0.0,0.0,54,0.00,,---,0.00,VWS V13.01,2013-10-14 19:04:00,
2013-10-14 15:09:00,61.7,44.9,0.00,North,357,0.0,0.0,54,0.00,,---,0.00,VWS V13.01,2013-10-14 19:09:00,
2013-10-14 15:14:00,61.7,45.4,0.00,North,357,0.0,0.0,55,0.00,,---,0.00,VWS V13.01,2013-10-14 19:14:00,
2013-10-14 15:19:00,61.3,44.1,0.00,North,357,0.0,0.0,53,0.00,,---,0.00,VWS V13.01,2013-10-14 19:19:00,
2013-10-14 15:24:00,61.3,44.1,0.00,North,357,0.0,0.0,53,0.00,,---,0.00,VWS V13.01,2013-10-14 19:24:00,
2013-10-14 15:29:00,61.3,44.1,0.00,North,357,0.0,0.0,53,0.00,,---,0.00,VWS V13.01,2013-10-14 19:29:00,
2013-10-14 15:34:00,61.2,43.9,0.00,North,357,0.0,0.0,53,0.00,,---,0.00,VWS V13.01,2013-10-14 19:34:00,
2013-10-14 15:39:00,61.2,43.9,0.00,North,357,0.0,0.0,53,0.00,,---,0.00,VWS V13.01,2013-10-14 19:39:00,
2013-10-14 15:45:00,61.0,43.2,0.00,North,357,0.0,0.0,52,0.00,,---,0.00,VWS V13.01,2013-10-14 19:45:00,
2013-10-14 15:50:00,61.0,43.2,0.00,North,357,0.0,0.0,52,0.00,,---,0.00,VWS V13.01,2013-10-14 19:50:00,
2013-10-14 15:55:00,60.8,42.6,0.00,North,357,0.0,0.0,51,0.00,,---,0.00,VWS V13.01,2013-10-14 19:55:00,
2013-10-14 16:00:00,60.6,42.9,0.00,North,357,0.0,0.0,52,0.00,,---,0.00,VWS V13.01,2013-10-14 20:00:00,
2013-10-14 16:05:00,60.8,43.6,0.00,North,357,0.0,0.0,53,0.00,,---,0.00,VWS V13.01,2013-10-14 20:05:00,
2013-10-14 16:10:00,60.8,43.1,0.00,North,357,0.0,0.0,52,0.00,,---,0.00,VWS V13.01,2013-10-14 20:10:00,
2013-10-14 16:15:00,61.0,43.2,0.00,North,357,0.0,0.0,52,0.00,,---,0.00,VWS V13.01,2013-10-14 20:15:00,
2013-10-14 16:20:00,61.0,43.2,0.00,North,357,0.0,0.0,52,0.00,,---,0.00,VWS V13.01,2013-10-14 20:20:00,
2013-10-14 16:25:00,61.0,43.2,0.00,North,357,0.0,0.0,52,0.00,,---,0.00,VWS V13.01,2013-10-14 20:25:00,
2013-10-14 16:30:00,61.0,43.2,0.00,North,357,0.0,0.0,52,0.00,,---,0.00,VWS V13.01,2013-10-14 20:30:00,
2013-10-14 16:35:00,61.0,42.7,0.00,North,357,0.0,0.0,51,0.00,,---,0.00,VWS V13.01,2013-10-14 20:35:00,
2013-10-14 16:40:00,61.2,42.9,0.00,North,357,0.0,0.0,51,0.00,,---,0.00,VWS V13.01,2013-10-14 20:40:00,
2013-10-14 16:45:00,61.2,42.4,0.00,North,357,0.0,0.0,50,0.00,,---,0.00,VWS V13.01,2013-10-14 20:45:00,
2013-10-14 16:50:00,61.0,42.7,0.00,North,357,0.0,0.0,51,0.00,,---,0.00,VWS V13.01,2013-10-14 20:50:00,
2013-10-14 16:55:00,61.0,42.7,0.00,North,357,0.0,0.0,51,0.00,,---,0.00,VWS V13.01,2013-10-14 20:55:00,
2013-10-14 17:00:00,61.2,42.9,0.00,North,357,0.0,0.0,51,0.00,,---,0.00,VWS V13.01,2013-10-14 21:00:00,
2013-10-14 17:03:00,61.0,42.2,0.00,North,357,0.0,0.0,50,0.00,,---,0.00,VWS V13.01,2013-10-14 21:03:00,
2013-10-14 17:08:00,61.2,42.4,0.00,North,357,0.0,0.0,50,0.00,,---,0.00,VWS V13.01,2013-10-14 21:08:00,
2013-10-14 17:13:00,61.0,41.7,0.00,North,357,0.0,0.0,49,0.00,,---,0.00,VWS V13.01,2013-10-14 21:13:00,
2013-10-14 17:18:00,61.0,41.2,0.00,North,357,0.0,0.0,48,0.00,,---,0.00,VWS V13.01,2013-10-14 21:18:00,
2013-10-14 17:23:00,61.0,41.2,0.00,North,357,0.0,0.0,48,0.00,,---,0.00,VWS V13.01,2013-10-14 21:23:00,
2013-10-14 17:28:00,60.8,41.0,0.00,North,357,0.0,0.0,48,0.00,,---,0.00,VWS V13.01,2013-10-14 21:28:00,
2013-10-14 17:33:00,60.4,40.7,0.00,North,357,0.0,0.0,48,0.00,,---,0.00,VWS V13.01,2013-10-14 21:33:00,
2013-10-14 17:38:00,60.3,41.0,0.00,North,357,0.0,0.0,49,0.00,,---,0.00,VWS V13.01,2013-10-14 21:38:00,
2013-10-14 17:43:00,59.9,40.7,0.00,North,357,0.0,0.0,49,0.00,,---,0.00,VWS V13.01,2013-10-14 21:43:00,
2013-10-14 17:48:00,59.5,40.4,0.00,North,357,0.0,0.0,49,0.00,,---,0.00,VWS V13.01,2013-10-14 21:48:00,
2013-10-14 17:53:00,59.4,40.7,0.00,North,357,0.0,0.0,50,0.00,,---,0.00,VWS V13.01,2013-10-14 21:53:00,
2013-10-14 17:58:00,59.0,40.4,0.00,North,357,0.0,0.0,50,0.00,,---,0.00,VWS V13.01,2013-10-14 21:58:00,
2013-10-14 18:03:00,58.8,40.8,0.00,North,357,0.0,0.0,51,0.00,,---,0.00,VWS V13.01,2013-10-14 22:03:00,
2013-10-14 18:09:00,58.6,41.1,0.00,North,357,0.0,0.0,52,0.00,,---,0.00,VWS V13.01,2013-10-14 22:09:00,
2013-10-14 18:14:00,58.5,40.9,0.00,North,357,0.0,0.0,52,0.00,,---,0.00,VWS V13.01,2013-10-14 22:14:00,
2013-10-14 18:19:00,58.1,41.1,0.00,North,357,0.0,0.0,53,0.00,,---,0.00,VWS V13.01,2013-10-14 22:19:00,
2013-10-14 18:24:00,57.7,41.7,0.00,North,357,0.0,0.0,55,0.00,,---,0.00,VWS V13.01,2013-10-14 22:24:00,
2013-10-14 18:29:00,57.6,42.5,0.00,North,357,0.0,0.0,57,0.00,,---,0.00,VWS V13.01,2013-10-14 22:29:00,
2013-10-14 18:34:00,57.2,43.0,0.00,North,357,0.0,0.0,59,0.00,,---,0.00,VWS V13.01,2013-10-14 22:34:00,
2013-10-14 18:39:00,57.0,43.7,0.00,North,357,0.0,0.0,61,0.00,,---,0.00,VWS V13.01,2013-10-14 22:39:00,
2013-10-14 18:44:00,56.7,43.8,0.00,North,357,0.0,0.0,62,0.00,,---,0.00,VWS V13.01,2013-10-14 22:44:00,
2013-10-14 18:49:00,56.3,43.9,0.00,North,357,0.0,0.0,63,0.00,,---,0.00,VWS V13.01,2013-10-14 22:49:00,
2013-10-14 18:54:00,56.1,44.1,0.00,North,357,0.0,0.0,64,0.00,,---,0.00,VWS V13.01,2013-10-14 22:54:00,
2013-10-14 18:59:00,55.8,44.2,0.00,North,357,0.0,0.0,65,0.00,,---,0.00,VWS V13.01,2013-10-14 22:59:00,
2013-10-14 19:04:00,55.4,44.6,0.00,North,357,0.0,0.0,67,0.00,,---,0.00,VWS V13.01,2013-10-14 23:04:00,
2013-10-14 19:09:00,55.2,44.9,0.00,North,357,0.0,0.0,68,0.00,,---,0.00,VWS V13.01,2013-10-14 23:09:00,
2013-10-14 19:14:00,55.0,45.1,0.00,North,357,0.0,0.0,69,0.00,,---,0.00,VWS V13.01,2013-10-14 23:14:00,
2013-10-14 19:19:00,54.9,45.3,0.00,North,357,0.0,0.0,70,0.00,,---,0.00,VWS V13.01,2013-10-14 23:19:00,
2013-10-14 19:24:00,54.5,44.9,0.00,North,357,0.0,0.0,70,0.00,,---,0.00,VWS V13.01,2013-10-14 23:24:00,
2013-10-14 19:29:00,54.1,45.0,0.00,North,357,0.0,0.0,71,0.00,,---,0.00,VWS V13.01,2013-10-14 23:29:00,
2013-10-14 19:34:00,53.8,44.6,0.00,North,357,0.0,0.0,71,0.00,,---,0.00,VWS V13.01,2013-10-14 23:34:00,
2013-10-14 19:40:00,53.2,44.1,0.00,North,357,0.0,0.0,71,0.00,,---,0.00,VWS V13.01,2013-10-14 23:40:00,
2013-10-14 19:45:00,52.9,44.1,0.00,North,357,0.0,0.0,72,0.00,,---,0.00,VWS V13.01,2013-10-14 23:45:00,
2013-10-14 19:50:00,52.7,43.9,0.00,North,357,0.0,0.0,72,0.00,,---,0.00,VWS V13.01,2013-10-14 23:50:00,
2013-10-14 19:55:00,52.3,44.0,0.00,North,357,0.0,0.0,73,0.00,,---,0.00,VWS V13.01,2013-10-14 23:55:00,
2013-10-14 20:00:00,52.2,43.8,0.00,North,357,0.0,0.0,73,0.00,,---,0.00,VWS V13.01,2013-10-15 00:00:00,
2013-10-14 20:05:00,52.0,44.0,0.00,North,357,0.0,0.0,74,0.00,,---,0.00,VWS V13.01,2013-10-15 00:05:00,
2013-10-14 20:10:00,52.0,44.0,0.00,North,357,0.0,0.0,74,0.00,,---,0.00,VWS V13.01,2013-10-15 00:10:00,
2013-10-14 20:15:00,52.0,44.3,0.00,North,357,0.0,0.0,75,0.00,,---,0.00,VWS V13.01,2013-10-15 00:15:00,
2013-10-14 20:20:00,52.0,44.3,0.00,North,357,0.0,0.0,75,0.00,,---,0.00,VWS V13.01,2013-10-15 00:20:00,
2013-10-14 20:26:00,51.8,44.5,0.00,North,357,0.0,0.0,76,0.00,,---,0.00,VWS V13.01,2013-10-15 00:26:00,
2013-10-14 20:31:00,51.6,44.7,0.00,North,357,0.0,0.0,77,0.00,,---,0.00,VWS V13.01,2013-10-15 00:31:00,
2013-10-14 20:36:00,51.6,45.0,0.00,North,357,0.0,0.0,78,0.00,,---,0.00,VWS V13.01,2013-10-15 00:36:00,
2013-10-14 20:41:00,51.8,45.2,0.00,North,357,0.0,0.0,78,0.00,,---,0.00,VWS V13.01,2013-10-15 00:41:00,
2013-10-14 20:46:00,51.6,45.3,0.00,North,357,0.0,0.0,79,0.00,,---,0.00,VWS V13.01,2013-10-15 00:46:00,
2013-10-14 20:51:00,51.8,45.5,0.00,North,357,0.0,0.0,79,0.00,,---,0.00,VWS V13.01,2013-10-15 00:51:00,
2013-10-14 20:56:00,51.8,45.8,0.00,North,357,0.0,0.0,80,0.00,,---,0.00,VWS V13.01,2013-10-15 00:56:00,
2013-10-14 21:01:00,51.6,45.7,0.00,North,357,0.0,0.0,80,0.00,,---,0.00,VWS V13.01,2013-10-15 01:01:00,
2013-10-14 21:06:00,51.6,46.0,0.00,North,357,0.0,0.0,81,0.00,,---,0.00,VWS V13.01,2013-10-15 01:06:00,
2013-10-14 21:11:00,51.6,46.0,0.00,North,357,0.0,0.0,81,0.00,,---,0.00,VWS V13.01,2013-10-15 01:11:00,
2013-10-14 21:16:00,51.6,46.0,0.00,North,357,0.0,0.0,81,0.00,,---,0.00,VWS V13.01,2013-10-15 01:16:00,
2013-10-14 21:21:00,51.3,45.6,0.00,North,357,0.0,0.0,81,0.00,,---,0.00,VWS V13.01,2013-10-15 01:21:00,
2013-10-14 21:26:00,51.3,45.6,0.00,North,357,0.0,0.0,81,0.00,,---,0.00,VWS V13.01,2013-10-15 01:26:00,
2013-10-14 21:31:00,51.1,45.5,0.00,North,357,0.0,0.0,81,0.00,,---,0.00,VWS V13.01,2013-10-15 01:31:00,
2013-10-14 21:36:00,50.7,45.1,0.00,North,357,0.0,0.0,81,0.00,,---,0.00,VWS V13.01,2013-10-15 01:36:00,
2013-10-14 21:42:00,50.4,44.4,0.00,North,357,0.0,0.0,80,0.00,,---,0.00,VWS V13.01,2013-10-15 01:42:00,
2013-10-14 21:47:00,50.4,44.8,0.00,North,357,0.0,0.0,81,0.00,,---,0.00,VWS V13.01,2013-10-15 01:47:00,
2013-10-14 21:52:00,50.2,44.6,0.00,North,357,0.0,0.0,81,0.00,,---,0.00,VWS V13.01,2013-10-15 01:52:00,
2013-10-14 21:57:00,50.0,44.1,0.00,North,357,0.0,0.0,80,0.00,,---,0.00,VWS V13.01,2013-10-15 01:57:00,
2013-10-14 22:02:00,49.5,43.6,0.00,North,357,0.0,0.0,80,0.00,,---,0.00,VWS V13.01,2013-10-15 02:02:00,
2013-10-14 22:07:00,48.9,43.0,0.00,North,357,0.0,0.0,80,0.00,,---,0.00,VWS V13.01,2013-10-15 02:07:00,
2013-10-14 22:12:00,48.9,43.0,0.00,North,357,0.0,0.0,80,0.00,,---,0.00,VWS V13.01,2013-10-15 02:12:00,
2013-10-14 22:17:00,48.7,43.2,0.00,North,357,0.0,0.0,81,0.00,,---,0.00,VWS V13.01,2013-10-15 02:17:00,
2013-10-14 22:22:00,48.6,43.0,0.00,North,357,0.0,0.0,81,0.00,,---,0.00,VWS V13.01,2013-10-15 02:22:00,
2013-10-14 22:27:00,48.4,42.8,0.00,North,357,0.0,0.0,81,0.00,,---,0.00,VWS V13.01,2013-10-15 02:27:00,
2013-10-14 22:32:00,48.2,42.7,0.00,North,357,0.0,0.0,81,0.00,,---,0.00,VWS V13.01,2013-10-15 02:32:00,
2013-10-14 22:37:00,48.0,42.5,0.00,North,357,0.0,0.0,81,0.00,,---,0.00,VWS V13.01,2013-10-15 02:37:00,
2013-10-14 22:42:00,47.7,42.1,0.00,North,357,0.0,0.0,81,0.00,,---,0.00,VWS V13.01,2013-10-15 02:42:00,
2013-10-14 22:47:00,47.5,42.0,0.00,North,357,0.0,0.0,81,0.00,,---,0.00,VWS V13.01,2013-10-15 02:47:00,
2013-10-14 22:52:00,47.3,41.8,0.00,North,357,0.0,0.0,81,0.00,,---,0.00,VWS V13.01,2013-10-15 02:52:00,
2013-10-14 22:58:00,47.1,41.6,0.00,North,357,0.0,0.0,81,0.00,,---,0.00,VWS V13.01,2013-10-15 02:58:00,
2013-10-14 23:03:00,46.8,40.9,0.00,North,357,0.0,0.0,80,0.00,,---,0.00,VWS V13.01,2013-10-15 03:03:00,
2013-10-14 23:08:00,46.6,40.8,0.00,North,357,0.0,0.0,80,0.00,,---,0.00,VWS V13.01,2013-10-15 03:08:00,
2013-10-14 23:13:00,46.2,40.4,0.00,North,357,0.0,0.0,80,0.00,,---,0.00,VWS V13.01,2013-10-15 03:13:00,
2013-10-14 23:18:00,46.2,40.7,0.00,North,357,0.0,0.0,81,0.00,,---,0.00,VWS V13.01,2013-10-15 03:18:00,
2013-10-14 23:23:00,46.0,40.5,0.00,North,357,0.0,0.0,81,0.00,,---,0.00,VWS V13.01,2013-10-15 03:23:00,
2013-10-14 23:28:00,46.0,40.5,0.00,North,357,0.0,0.0,81,0.00,,---,0.00,VWS V13.01,2013-10-15 03:28:00,
2013-10-14 23:33:00,45.7,40.2,0.00,North,357,0.0,0.0,81,0.00,,---,0.00,VWS V13.01,2013-10-15 03:33:00,
2013-10-14 23:38:00,45.5,40.0,0.00,North,357,0.0,0.0,81,0.00,,---,0.00,VWS V13.01,2013-10-15 03:38:00,
2013-10-14 23:43:00,45.5,40.0,0.00,North,357,0.0,0.0,81,0.00,,---,0.00,VWS V13.01,2013-10-15 03:43:00,
2013-10-14 23:48:00,45.3,39.8,0.00,North,357,0.0,0.0,81,0.00,,---,0.00,VWS V13.01,2013-10-15 03:48:00,
2013-10-14 23:53:00,45.1,39.7,0.00,North,357,0.0,0.0,81,0.00,,---,0.00,VWS V13.01,2013-10-15 03:53:00,
2013-10-14 23:58:00,45.1,39.7,0.00,North,357,0.0,0.0,81,0.00,,---,0.00,VWS V13.01,2013-10-15 03:58:00,